AFL1150 UUEE-UWKD

Flight info

Callsign AFL1150
Flight time 1h 11m
Altitude 37000
Route KOGOM L94 EKPIR M864 INKEB L94 UNORO T788 KOROM
Aircraft A320/M-SDE3FGHIRWY/LB1

Departure

Time 2026-05-07 18:54
Airport Sheremetyevo International Airport (UUEE)

Arrival

Time 2026-05-07 20:05
Airport Kazan International Airport (UWKD)
Time Latitude Longitude Altitude Speed Heading
2026-05-07 18:28 55.97886 37.41658 639 ft 0 kts 77°
2026-05-07 18:45 55.97885 37.41650 639 ft 2 kts 76°
2026-05-07 18:45 55.97881 37.41622 639 ft 2 kts 75°
2026-05-07 18:45 55.97877 37.41593 646 ft 2 kts 73°
2026-05-07 18:46 55.97872 37.41565 644 ft 2 kts 77°
2026-05-07 18:46 55.97870 37.41536 641 ft 2 kts 122°
2026-05-07 18:46 55.97882 37.41517 642 ft 2 kts 161°
2026-05-07 18:46 55.97891 37.41512 644 ft 0 kts 166°
2026-05-07 18:48 55.97890 37.41512 644 ft 1 kts 166°
2026-05-07 18:49 55.97866 37.41524 641 ft 7 kts 164°
2026-05-07 18:49 55.97801 37.41556 641 ft 12 kts 165°
2026-05-07 18:49 55.97712 37.41592 639 ft 13 kts 181°
2026-05-07 18:49 55.97623 37.41615 643 ft 12 kts 145°
2026-05-07 18:50 55.97619 37.41745 645 ft 11 kts 75°
2026-05-07 18:50 55.97641 37.41889 642 ft 14 kts 75°
2026-05-07 18:50 55.97667 37.42069 643 ft 16 kts 75°
2026-05-07 18:50 55.97689 37.42216 639 ft 9 kts 75°
2026-05-07 18:51 55.97697 37.42309 639 ft 7 kts 91°
2026-05-07 18:51 55.97689 37.42379 643 ft 5 kts 98°
2026-05-07 18:51 55.97710 37.42449 639 ft 11 kts 49°
2026-05-07 18:51 55.97748 37.42604 647 ft 17 kts 76°
2026-05-07 18:52 55.97761 37.42754 639 ft 9 kts 106°
2026-05-07 18:52 55.97717 37.42802 639 ft 7 kts 165°
2026-05-07 18:52 55.97675 37.42822 638 ft 6 kts 165°
2026-05-07 18:52 55.97640 37.42839 640 ft 5 kts 165°
2026-05-07 18:53 55.97605 37.42832 638 ft 6 kts 219°
2026-05-07 18:53 55.97598 37.42795 642 ft 0 kts 255°
2026-05-07 18:53 55.97590 37.42742 639 ft 20 kts 255°
2026-05-07 18:54 55.97473 37.41953 642 ft 110 kts 255°
2026-05-07 18:54 55.97211 37.40208 698 ft 173 kts 255°
2026-05-07 18:54 55.96888 37.38119 1572 ft 177 kts 254°
2026-05-07 18:54 55.96558 37.36026 2451 ft 173 kts 253°
2026-05-07 18:55 55.96235 37.33986 3195 ft 169 kts 254°
2026-05-07 18:55 55.95919 37.31990 3872 ft 167 kts 253°
2026-05-07 18:55 55.95585 37.29890 4225 ft 186 kts 253°
2026-05-07 18:55 55.95212 37.27526 4476 ft 211 kts 253°
2026-05-07 18:56 55.94793 37.24864 4852 ft 235 kts 253°
2026-05-07 18:56 55.94332 37.21946 5457 ft 250 kts 253°
2026-05-07 18:56 55.93859 37.18948 6361 ft 252 kts 253°
2026-05-07 18:56 55.93387 37.15958 7284 ft 250 kts 253°
2026-05-07 18:57 55.92913 37.12951 8162 ft 253 kts 252°
2026-05-07 18:57 55.92437 37.09921 9082 ft 255 kts 252°
2026-05-07 18:57 55.91958 37.06870 9963 ft 256 kts 252°
2026-05-07 18:57 55.91707 37.03704 10745 ft 264 kts 270°
2026-05-07 18:58 55.92159 37.00486 11510 ft 276 kts 291°
2026-05-07 18:58 55.93354 36.97733 12289 ft 291 kts 315°
2026-05-07 18:58 55.95015 36.95613 13108 ft 295 kts 319°
2026-05-07 18:58 55.96771 36.93665 13897 ft 302 kts 330°
2026-05-07 18:59 55.98840 36.92666 14563 ft 317 kts 349°
2026-05-07 18:59 56.01080 36.92980 15228 ft 331 kts 10°
2026-05-07 18:59 56.03219 36.94675 15869 ft 343 kts 29°
2026-05-07 18:59 56.05230 36.97021 16536 ft 347 kts 30°
2026-05-07 19:00 56.07256 36.99395 17205 ft 350 kts 30°
2026-05-07 19:00 56.09262 37.01912 17857 ft 356 kts 38°
2026-05-07 19:00 56.10976 37.05114 18467 ft 363 kts 51°
2026-05-07 19:00 56.12322 37.09055 18745 ft 378 kts 65°
2026-05-07 19:01 56.13159 37.13603 19006 ft 390 kts 77°
2026-05-07 19:01 56.13811 37.18350 19520 ft 394 kts 76°
2026-05-07 19:01 56.14478 37.23143 20074 ft 397 kts 76°
2026-05-07 19:01 56.15157 37.27965 20629 ft 400 kts 76°
2026-05-07 19:02 56.15684 37.32880 21177 ft 403 kts 85°
2026-05-07 19:02 56.15746 37.37936 21479 ft 412 kts 96°
2026-05-07 19:02 56.15439 37.43120 21619 ft 424 kts 98°
2026-05-07 19:02 56.15099 37.48429 21946 ft 432 kts 98°
2026-05-07 19:03 56.14750 37.53803 22407 ft 436 kts 98°
2026-05-07 19:03 56.14393 37.59212 22887 ft 438 kts 98°
2026-05-07 19:03 56.14033 37.64660 23387 ft 441 kts 98°
2026-05-07 19:03 56.13675 37.70137 23790 ft 444 kts 98°
2026-05-07 19:04 56.13315 37.75641 24202 ft 446 kts 98°
2026-05-07 19:04 56.12951 37.81176 24603 ft 448 kts 98°
2026-05-07 19:04 56.12582 37.86736 25003 ft 450 kts 98°
2026-05-07 19:04 56.12208 37.92321 25383 ft 453 kts 98°
2026-05-07 19:05 56.11830 37.97936 25775 ft 455 kts 98°
2026-05-07 19:05 56.11449 38.03575 26146 ft 457 kts 98°
2026-05-07 19:05 56.11064 38.09240 26519 ft 459 kts 98°
2026-05-07 19:05 56.10674 38.14932 26887 ft 461 kts 98°
2026-05-07 19:06 56.10277 38.20648 27257 ft 464 kts 98°
2026-05-07 19:06 56.09475 38.32159 27996 ft 468 kts 98°
2026-05-07 19:06 56.09065 38.37956 28355 ft 470 kts 98°
2026-05-07 19:07 56.08648 38.43771 28695 ft 472 kts 98°
2026-05-07 19:07 56.08467 38.49649 29014 ft 475 kts 88°
2026-05-07 19:07 56.08628 38.55491 29315 ft 477 kts 87°
2026-05-07 19:07 56.08799 38.61517 29635 ft 479 kts 87°
2026-05-07 19:08 56.08972 38.67484 29948 ft 481 kts 87°
2026-05-07 19:08 56.09145 38.73479 30217 ft 483 kts 87°
2026-05-07 19:08 56.09314 38.79502 30473 ft 485 kts 87°
2026-05-07 19:08 56.09479 38.85544 30743 ft 486 kts 87°
2026-05-07 19:09 56.09640 38.91581 31106 ft 485 kts 87°
2026-05-07 19:09 56.09800 38.97613 31474 ft 484 kts 87°
2026-05-07 19:09 56.09956 39.03631 31838 ft 483 kts 87°
2026-05-07 19:09 56.10108 39.09644 32204 ft 483 kts 86°
2026-05-07 19:10 56.10257 39.15641 32570 ft 482 kts 86°
2026-05-07 19:10 56.10400 39.21631 32932 ft 481 kts 86°
2026-05-07 19:10 56.10538 39.27526 33289 ft 480 kts 86°
2026-05-07 19:10 56.10678 39.33577 33656 ft 479 kts 86°
2026-05-07 19:11 56.10812 39.39457 33999 ft 478 kts 86°
2026-05-07 19:11 56.10945 39.45406 34311 ft 478 kts 86°
2026-05-07 19:11 56.11072 39.51346 34609 ft 477 kts 87°
2026-05-07 19:11 56.11196 39.57285 34894 ft 477 kts 87°
2026-05-07 19:12 56.11319 39.63222 35165 ft 477 kts 87°
2026-05-07 19:12 56.11443 39.69153 35435 ft 476 kts 87°
2026-05-07 19:12 56.11565 39.75082 35696 ft 476 kts 87°
2026-05-07 19:12 56.11684 39.81005 35946 ft 476 kts 87°
2026-05-07 19:13 56.11797 39.86932 36192 ft 476 kts 88°
2026-05-07 19:13 56.11906 39.92852 36427 ft 476 kts 88°
2026-05-07 19:13 56.12009 39.98773 36640 ft 475 kts 88°
2026-05-07 19:13 56.12110 40.04695 36840 ft 476 kts 88°
2026-05-07 19:14 56.12308 40.16534 36900 ft 475 kts 88°
2026-05-07 19:14 56.12490 40.28362 36905 ft 474 kts 88°
2026-05-07 19:15 56.12669 40.40180 36903 ft 474 kts 88°
2026-05-07 19:15 56.12846 40.51997 36903 ft 474 kts 88°
2026-05-07 19:16 56.13000 40.63801 36908 ft 474 kts 88°
2026-05-07 19:16 56.13135 40.75604 36905 ft 473 kts 89°
2026-05-07 19:17 56.13254 40.87398 36909 ft 473 kts 89°
2026-05-07 19:17 56.13370 40.99194 36913 ft 473 kts 89°
2026-05-07 19:18 56.13480 41.10985 36915 ft 473 kts 89°
2026-05-07 19:18 56.13588 41.22763 36912 ft 472 kts 89°
2026-05-07 19:19 56.13676 41.34535 36911 ft 472 kts 89°
2026-05-07 19:19 56.13747 41.46296 36911 ft 472 kts 89°
2026-05-07 19:20 56.13803 41.58051 36908 ft 471 kts 89°
2026-05-07 19:20 56.13852 41.69807 36904 ft 471 kts 89°
2026-05-07 19:21 56.13894 41.81555 36903 ft 471 kts 89°
2026-05-07 19:21 56.13925 41.93306 36905 ft 471 kts 90°
2026-05-07 19:22 56.13944 42.05055 36905 ft 471 kts 90°
2026-05-07 19:22 56.13945 42.16807 36907 ft 471 kts 90°
2026-05-07 19:23 56.13946 42.28542 36905 ft 471 kts 90°
2026-05-07 19:23 56.13928 42.40280 36900 ft 471 kts 90°
2026-05-07 19:24 56.13894 42.52013 36901 ft 470 kts 90°
2026-05-07 19:24 56.13859 42.63743 36901 ft 470 kts 90°
2026-05-07 19:25 56.13814 42.75459 36901 ft 470 kts 90°
2026-05-07 19:25 56.13759 42.87170 36899 ft 469 kts 90°
2026-05-07 19:26 56.13701 42.96894 36902 ft 469 kts 90°
2026-05-07 19:26 56.13617 43.08585 36899 ft 469 kts 91°
2026-05-07 19:27 56.13515 43.20269 36895 ft 469 kts 91°
2026-05-07 19:27 56.13416 43.31947 36899 ft 468 kts 91°
2026-05-07 19:28 56.13313 43.43621 36895 ft 468 kts 91°
2026-05-07 19:28 56.13195 43.55280 36893 ft 468 kts 91°
2026-05-07 19:29 56.13062 43.66936 36891 ft 467 kts 91°
2026-05-07 19:29 56.12911 43.78583 36887 ft 467 kts 91°
2026-05-07 19:30 56.12745 43.90229 36888 ft 467 kts 91°
2026-05-07 19:30 56.12584 44.01873 36887 ft 467 kts 91°
2026-05-07 19:31 56.12407 44.13525 36891 ft 468 kts 91°
2026-05-07 19:31 56.12216 44.25179 36891 ft 468 kts 92°
2026-05-07 19:32 56.12011 44.36829 36893 ft 468 kts 92°
2026-05-07 19:32 56.11799 44.48475 36895 ft 468 kts 92°
2026-05-07 19:33 56.11581 44.60124 36895 ft 468 kts 92°
2026-05-07 19:33 56.11351 44.71770 36899 ft 468 kts 92°
2026-05-07 19:34 56.11104 44.83417 36898 ft 468 kts 92°
2026-05-07 19:34 56.10846 44.95072 36900 ft 468 kts 92°
2026-05-07 19:35 56.10580 45.06724 36912 ft 468 kts 92°
2026-05-07 19:35 56.10302 45.18371 36911 ft 468 kts 92°
2026-05-07 19:36 56.10009 45.30015 36919 ft 468 kts 92°
2026-05-07 19:36 56.09715 45.41656 36924 ft 468 kts 92°
2026-05-07 19:37 56.09414 45.53287 36929 ft 467 kts 93°
2026-05-07 19:37 56.09085 45.64912 36752 ft 467 kts 93°
2026-05-07 19:38 56.08915 45.70715 36485 ft 466 kts 93°
2026-05-07 19:38 56.08745 45.76509 36226 ft 466 kts 93°
2026-05-07 19:38 56.08573 45.82299 35968 ft 465 kts 93°
2026-05-07 19:38 56.08399 45.88084 35700 ft 465 kts 93°
2026-05-07 19:39 56.08228 45.93888 34838 ft 470 kts 93°
2026-05-07 19:39 56.08054 45.99764 33975 ft 475 kts 93°
2026-05-07 19:39 56.07876 46.05653 33271 ft 472 kts 93°
2026-05-07 19:39 56.07691 46.11510 32553 ft 470 kts 93°
2026-05-07 19:40 56.07504 46.17345 31842 ft 469 kts 93°
2026-05-07 19:40 56.07315 46.23153 31148 ft 467 kts 93°
2026-05-07 19:40 56.07124 46.28933 30478 ft 464 kts 93°
2026-05-07 19:40 56.06931 46.34690 29786 ft 462 kts 93°
2026-05-07 19:41 56.06735 46.40406 29022 ft 459 kts 93°
2026-05-07 19:41 56.06536 46.46093 28277 ft 457 kts 94°
2026-05-07 19:41 56.06118 46.51699 27639 ft 452 kts 103°
2026-05-07 19:41 56.05215 46.57045 27059 ft 446 kts 111°
2026-05-07 19:42 56.04106 46.62203 26482 ft 442 kts 111°
2026-05-07 19:42 56.03017 46.67308 25926 ft 437 kts 111°
2026-05-07 19:42 56.01940 46.72367 25367 ft 433 kts 111°
2026-05-07 19:42 56.00873 46.77371 24845 ft 429 kts 111°
2026-05-07 19:43 55.99812 46.82316 24326 ft 424 kts 111°
2026-05-07 19:43 55.98758 46.87208 23835 ft 419 kts 111°
2026-05-07 19:43 55.97713 46.92043 23310 ft 415 kts 111°
2026-05-07 19:43 55.96680 46.96816 22837 ft 409 kts 111°
2026-05-07 19:44 55.95658 47.01521 22376 ft 404 kts 111°
2026-05-07 19:44 55.94649 47.06161 21953 ft 400 kts 111°
2026-05-07 19:44 55.93640 47.10788 21687 ft 400 kts 111°
2026-05-07 19:44 55.92630 47.15409 21426 ft 399 kts 111°
2026-05-07 19:45 55.91621 47.20011 21240 ft 398 kts 111°
2026-05-07 19:45 55.90613 47.24603 21109 ft 397 kts 111°
2026-05-07 19:45 55.89605 47.29185 20983 ft 397 kts 111°
2026-05-07 19:45 55.88598 47.33760 20853 ft 396 kts 112°
2026-05-07 19:46 55.87589 47.38324 20726 ft 395 kts 112°
2026-05-07 19:46 55.86582 47.42873 20598 ft 395 kts 112°
2026-05-07 19:46 55.85576 47.47409 20472 ft 394 kts 112°
2026-05-07 19:46 55.84568 47.51935 20340 ft 393 kts 112°
2026-05-07 19:47 55.83537 47.56431 20219 ft 392 kts 116°
2026-05-07 19:47 55.82007 47.60401 20058 ft 389 kts 132°
2026-05-07 19:47 55.80190 47.63954 19954 ft 388 kts 134°
2026-05-07 19:47 55.78355 47.67471 19889 ft 388 kts 134°
2026-05-07 19:48 55.76522 47.70979 19741 ft 387 kts 134°
2026-05-07 19:48 55.74690 47.74480 19586 ft 387 kts 134°
2026-05-07 19:48 55.72863 47.77966 19339 ft 385 kts 134°
2026-05-07 19:48 55.71043 47.81434 18986 ft 383 kts 134°
2026-05-07 19:49 55.69233 47.84879 18626 ft 381 kts 134°
2026-05-07 19:49 55.67432 47.88301 18269 ft 379 kts 134°
2026-05-07 19:49 55.65638 47.91703 17797 ft 377 kts 134°
2026-05-07 19:49 55.63852 47.95086 17256 ft 376 kts 134°
2026-05-07 19:50 55.62068 47.98456 16733 ft 375 kts 134°
2026-05-07 19:50 55.60286 48.01811 16219 ft 374 kts 134°
2026-05-07 19:50 55.58505 48.05154 15703 ft 372 kts 134°
2026-05-07 19:50 55.56807 48.08578 15097 ft 370 kts 124°
2026-05-07 19:51 55.55689 48.12613 14550 ft 363 kts 106°
2026-05-07 19:51 55.55330 48.16961 14023 ft 355 kts 87°
2026-05-07 19:51 55.55665 48.21220 13495 ft 346 kts 77°
2026-05-07 19:51 55.56118 48.25347 12960 ft 338 kts 77°
2026-05-07 19:52 55.56556 48.29361 12440 ft 328 kts 77°
2026-05-07 19:52 55.56971 48.33207 11934 ft 319 kts 77°
2026-05-07 19:52 55.57377 48.37001 11436 ft 310 kts 77°
2026-05-07 19:52 55.57770 48.40701 10944 ft 302 kts 77°
2026-05-07 19:53 55.58151 48.44293 10530 ft 293 kts 77°
2026-05-07 19:53 55.58520 48.47777 10119 ft 284 kts 77°
2026-05-07 19:53 55.58876 48.51159 9699 ft 276 kts 77°
2026-05-07 19:53 55.59224 48.54464 9223 ft 271 kts 77°
2026-05-07 19:54 55.59566 48.57713 8734 ft 268 kts 77°
2026-05-07 19:54 55.59906 48.60949 8285 ft 267 kts 78°
2026-05-07 19:54 55.60243 48.64168 7861 ft 265 kts 78°
2026-05-07 19:54 55.60575 48.67358 7435 ft 263 kts 78°
2026-05-07 19:55 55.60901 48.70500 7055 ft 255 kts 78°
2026-05-07 19:55 55.61217 48.73548 6686 ft 249 kts 78°
2026-05-07 19:55 55.61527 48.76550 6329 ft 248 kts 78°
2026-05-07 19:55 55.61834 48.79544 5956 ft 247 kts 79°
2026-05-07 19:56 55.62143 48.82539 5580 ft 247 kts 78°
2026-05-07 19:56 55.62432 48.85358 5229 ft 246 kts 80°
2026-05-07 19:56 55.62931 48.88209 4909 ft 241 kts 56°
2026-05-07 19:56 55.64133 48.90174 4687 ft 236 kts 24°
2026-05-07 19:57 55.65719 48.90675 4537 ft 234 kts 351°
2026-05-07 19:57 55.67205 48.89592 4413 ft 234 kts 321°
2026-05-07 19:57 55.68421 48.87674 4302 ft 234 kts 315°
2026-05-07 19:57 55.69577 48.85652 4250 ft 231 kts 314°
2026-05-07 19:58 55.70712 48.83646 4203 ft 230 kts 314°
2026-05-07 19:58 55.71870 48.81688 4124 ft 231 kts 322°
2026-05-07 19:58 55.73349 48.80672 4011 ft 232 kts 355°
2026-05-07 19:58 55.74889 48.81244 3966 ft 224 kts 30°
2026-05-07 19:59 55.75922 48.83131 3969 ft 210 kts 65°
2026-05-07 19:59 55.76137 48.85603 3843 ft 202 kts 102°
2026-05-07 19:59 55.75732 48.87946 3726 ft 197 kts 112°
2026-05-07 19:59 55.75218 48.90185 3601 ft 195 kts 114°
2026-05-07 20:00 55.74643 48.92356 3473 ft 193 kts 129°
2026-05-07 20:00 55.73707 48.94028 3359 ft 191 kts 133°
2026-05-07 20:00 55.72911 48.95923 3240 ft 192 kts 126°
2026-05-07 20:00 55.72167 48.97876 3118 ft 191 kts 126°
2026-05-07 20:01 55.71426 48.99821 2998 ft 190 kts 126°
2026-05-07 20:01 55.70688 49.01749 2883 ft 188 kts 126°
2026-05-07 20:01 55.69957 49.03657 2780 ft 184 kts 126°
2026-05-07 20:01 55.69258 49.05480 2648 ft 174 kts 126°
2026-05-07 20:02 55.68592 49.07217 2518 ft 168 kts 126°
2026-05-07 20:02 55.67941 49.08909 2447 ft 166 kts 126°
2026-05-07 20:02 55.67300 49.10576 2300 ft 163 kts 126°
2026-05-07 20:02 55.66669 49.12218 2117 ft 155 kts 126°
2026-05-07 20:03 55.66089 49.13725 1906 ft 143 kts 126°
2026-05-07 20:03 55.65542 49.15146 1713 ft 137 kts 126°
2026-05-07 20:03 55.65007 49.16534 1533 ft 136 kts 126°
2026-05-07 20:03 55.64474 49.17914 1361 ft 136 kts 125°
2026-05-07 20:04 55.63942 49.19295 1172 ft 136 kts 124°
2026-05-07 20:04 55.63407 49.20678 1007 ft 136 kts 124°
2026-05-07 20:04 55.62865 49.22079 824 ft 139 kts 123°
2026-05-07 20:04 55.62318 49.23496 631 ft 139 kts 123°
2026-05-07 20:05 55.61778 49.24907 467 ft 138 kts 123°
2026-05-07 20:05 55.61264 49.26230 412 ft 115 kts 125°
2026-05-07 20:05 55.60906 49.27148 413 ft 66 kts 124°
2026-05-07 20:05 55.60696 49.27687 415 ft 42 kts 124°
2026-05-07 20:06 55.60538 49.28097 412 ft 39 kts 125°
2026-05-07 20:06 55.60424 49.28385 408 ft 18 kts 125°
2026-05-07 20:06 55.60389 49.28545 417 ft 13 kts 76°
2026-05-07 20:06 55.60452 49.28650 417 ft 11 kts 34°
2026-05-07 20:07 55.60482 49.28686 413 ft 0 kts 34°
2026-05-07 20:08 55.60503 49.28712 412 ft 6 kts 34°
2026-05-07 20:08 55.60523 49.28768 408 ft 5 kts 82°
2026-05-07 20:08 55.60504 49.28844 411 ft 9 kts 124°
2026-05-07 20:09 55.60460 49.28957 416 ft 13 kts 124°
2026-05-07 20:09 55.60399 49.29113 408 ft 17 kts 124°
2026-05-07 20:09 55.60324 49.29304 411 ft 20 kts 124°
2026-05-07 20:10 55.60152 49.29749 407 ft 19 kts 124°
2026-05-07 20:10 55.60105 49.29877 412 ft 8 kts 107°
2026-05-07 20:10 55.60120 49.29949 411 ft 6 kts 46°
2026-05-07 20:10 55.60153 49.29969 416 ft 5 kts 359°
2026-05-07 20:11 55.60199 49.29936 412 ft 10 kts 334°
2026-05-07 20:11 55.60278 49.29880 410 ft 12 kts 348°
2026-05-07 20:11 55.60360 49.29897 416 ft 12 kts 18°
2026-05-07 20:11 55.60428 49.29967 416 ft 11 kts 33°
2026-05-07 20:12 55.60488 49.30040 411 ft 10 kts 35°
2026-05-07 20:12 55.60543 49.30078 413 ft 8 kts 350°
2026-05-07 20:12 55.60588 49.30034 411 ft 7 kts 337°
2026-05-07 20:12 55.60630 49.30029 408 ft 6 kts 15°
2026-05-07 20:13 55.60659 49.30060 413 ft 4 kts 34°
2026-05-07 20:13 55.60673 49.30078 414 ft 1 kts 36°
2026-05-07 20:13 55.60674 49.30079 414 ft 0 kts 36°